CAPE
8 22 7 1 0 0 1 1 2 1 3 1 0 0 0 0 0 0 0 0 0 0 0 0 0 0 0 0 0 0 0 0 0 0 0 0 0 0 0 0 0 0 0
8 8 8 7 4 6 4 2 0 3 1 1 0 0 0 0 0 0 0 0 0 0 0 0 1 1 0 0 0 0 0 0 0 0 0 0 0 0 0 0 0 0 0
7 5 7 7 6 4 3 1 1 0 0 0 0 0 0 0 0 0 0 0 1 1 1 1 1 1 0 0 0 0 0 0 0 0 0 0 0 0 0 0 0 0 0
3 7 7 7 5 4 2 2 2 2 2 1 2 1 1 0 0 1 1 1 2 1 0 0 0 0 0 0 0 0 1 1 0 0 0 0 0 0 0 0 0 0 0
5 4 4 3 3 2 2 2 2 2 1 1 2 2 1 0 0 1 1 1 1 1 2 2 1 1 0 0 0 0 0 0 0 0 0 0 0 0 0 0 0 0 0
3 4 4 4 3 3 3 3 3 3 3 2 1 1 1 1 0 1 2 1 1 1 1 1 0 0 0 0 2 3 4 1 0 0 0 0 0 0 0 2 1 0 1
4 4 4 4 4 3 2 3 2 1 1 0 1 1 0 0 2 2 1 1 0 0 0 0 0 0 0 0 0 0 0 1 2 3 4 4 3 1 3 0 0 0 0
3 3 2 2 3 2 2 3 2 2 2 1 0 0 0 0 0 0 0 0 0 0 0 0 0 0 0 0 0 0 0 0 0 0 0 0 0 0 2 3 5 5 3
5 4 3 2 3 2 2 1 0 0 0 0 0 0 0 0 0 0 0 0 0 0 0 0 0 0 0 0 0 0 0 0 0 0 0 0 0 0 0 0 0 1 0
0 0 0 0 0 0 0 0 0 0 0 0 0 0 0 0 0 0 0 0 0 0 0 0 0 0 0 0 0 0 0 0 0 0 0 0 0 0 0 0 0 0 0
0 0 0 0 0 0 0 0 0 0 0 0 0 0 0 0 0 0 0 0 0 0 0 0 0 0 0 0 0 0 0 0 0 0 0 0 0 0 0 0 0 0 0
0 0 0 0 0 0 0 0 0 0 0 0 0 0 0 0 0 0 0 0 0 0 0 0 0 0 0 0 0 0 0 0 0 0 0 0 0 0 0 0 0 0 1
0 0 0 0 0 0 0 0 0 0 0 0 0 0 0 0 0 0 0 0 0 0 0 0 0 0 0 0 0 0 0 0 0 0 0 0 0 0 0 0 0 0 0
0 0 0 0 0 0 0 0 0 0 0 0 0 0 0 0 0 0 0 0 0 0 0 0 0 0 0 0 0 0 0 0 0 0 0 0 0 0 0 0 0 0 0
0 0 0 0 0 0 0 0 0 0 0 0 0 0 0 0 0 0 0 0 0 0 0 0 0 0 0 0 0 0 0 0 0 0 0 0 0 0 0 0 0 0 0
0 0 0 0 0 0 0 0 0 0 0 0 0 0 0 1 0 0 0 0 0 0 0 0 0 0 0 0 0 0 0 0 0 0 0 0 0 0 0 0 0 0 0
0 0 0 0 0 0 0 0 0 0 0 0 0 0 0 1 0 0 0 0 0 0 0 0 0 0 0 0 0 0 0 0 0 0 0 0 0 0 0 0 0 0 0
0 0 0 0 0 0 0 0 0 0 0 0 0 0 0 0 0 0 0 0 0 0 0 0 0 0 0 0 0 0 0 0 0 0 0 0 0 0 0 0 0 0 0
0 0 0 0 0 0 0 0 0 0 0 0 0 0 0 0 0 0 0 0 0 0 0 0 0 0 0 0 0 0 0 0 0 0 0 0 0 0 0 0 0 0 0
0 0 0 0 0 0 0 0 0 0 0 0 0 0 0 0 0 0 0 0 0 0 0 0 0 0 0 0 0 0 0 0 0 0 0 0 0 0 0 0 0 0 0
0 0 0 0 0 0 0 0 0 0 0 0 0 0 0 0 0 0 0 0 0 0 0 0 0 0 0 0 0 0 0 0 0 0 0 0 0 0 0 0 0 0 0
0 0 0 0 0 0 0 0 0 0 0 0 0 0 0 0 0 0 0 0 0 0 0 0 0 0 0 0 0 0 0 0 0 0 0 0 0 0 0 0 0 0 0
0 0 0 0 0 0 0 0 0 0 0 0 0 0 0 0 0 0 0 0 0 0 0 0 0 0 0 0 0 0 0 0 0 0 0 0 0 0 0 0 0 0 0
0 0 0 0 0 0 0 0 0 0 0 0 0 0 0 0 0 0 0 0 0 0 0 0 0 0 0 0 0 0 0 0 0 0 0 0 0 0 0 0 0 0 0
0 0 0 0 0 0 0 0 0 0 0 0 0 0 0 0 0 0 0 0 0 0 0 0 0 0 0 0 0 0 0 0 0 0 0 0 0 0 0 0 0 0 0
0 0 0 0 0 0 0 0 0 0 0 0 0 0 0 0 0 0 0 0 0 0 0 0 0 0 0 0 0 0 0 0 0 0 0 0 0 0 0 0 0 0 0
CIN
-28 -8 -7 -0 -0 -0 -0 -0 -0 -0 -0 -0 -0 -0 -0 -0 -0 -0 -0 -0 -0 -0 -0 -0 -0 -0 -0 -0 -0 -0 -0 -0 -0 -0 -0 -0 -0 -0 -0 -0 -0 -0 -0
-0 -0 -0 -0 -0 -0 -0 -0 -0 -0 -0 -0 -0 -0 -0 -0 -0 -0 -0 -0 -0 -0 -0 -0 -0 -0 -0 -0 -0 -0 -0 -0 -0 -0 -0 -0 -0 -0 -0 -0 -0 -0 -0
-0 -0 -0 -0 -0 -0 -0 -0 -0 -0 -0 -0 -0 -0 -0 -0 -0 -0 -0 -0 -0 -0 -0 -0 -0 -0 -0 -0 -0 -0 -0 -0 -0 -0 -0 -0 -0 -0 -0 -0 -0 -0 -0
-0 -0 -0 -0 -0 -0 -0 -0 -0 -0 -0 -0 -0 -0 -0 -0 -0 -0 -0 -0 -0 -0 -0 -0 -0 -0 -0 -0 -0 -0 -0 -0 -0 -0 -0 -0 -0 -0 -0 -0 -0 -0 -0
-0 -0 -0 -0 -0 -0 -0 -0 -0 -0 -0 -0 -0 -0 -0 -0 -0 -0 -0 -0 -0 -0 -0 -0 -0 -0 -0 -0 -0 -0 -0 -0 -0 -0 -0 -0 -0 -0 -0 -0 -0 -0 -0
-0 -0 -0 -0 -0 -0 -0 -0 -0 -0 -0 -0 -0 -0 -0 -0 -0 -0 -0 -0 -0 -0 -0 -0 -0 -0 -0 -0 -0 -0 -0 -1 -0 -0 -0 -0 -0 -0 -1 -1 -1 -1 -0
-0 -0 -0 -0 -0 -0 -0 -0 -0 -0 -0 -0 -0 -0 -0 -0 -0 -0 -0 -0 -0 -0 -0 -0 -0 -0 -0 -0 -0 -0 -0 -0 -1 -1 -0 -0 -1 -1 -3 -0 -0 -0 -0
-0 -0 -0 -0 -0 -0 -0 -0 -0 -0 -0 -0 -0 -0 -0 -0 -0 -0 -0 -0 -0 -0 -0 -0 -0 -0 -0 -0 -0 -0 -0 -0 -0 -0 -0 -0 -0 -0 -1 -0 -0 -1 -0
-0 -0 -0 -0 -0 -0 -0 -0 -0 -0 -0 -0 -0 -0 -0 -0 -0 -0 -0 -0 -0 -0 -0 -0 -0 -0 -0 -0 -0 -0 -0 -0 -0 -0 -0 -0 -0 -0 -0 -0 -0 -0 -0
-0 -0 -0 -0 -0 -0 -0 -0 -0 -0 -0 -0 -0 -0 -0 -0 -0 -0 -0 -0 -0 -0 -0 -0 -0 -0 -0 -0 -0 -0 -0 -0 -0 -0 -0 -0 -0 -0 -0 -0 -0 -0 -0
-0 -0 -0 -0 -0 -0 -0 -0 -0 -0 -0 -0 -0 -0 -0 -0 -0 -0 -0 -0 -0 -0 -0 -0 -0 -0 -0 -0 -0 -0 -0 -0 -0 -0 -0 -0 -0 -0 -0 -0 -0 -0 -0
-0 -0 -0 -0 -0 -0 -0 -0 -0 -0 -0 -0 -0 -0 -0 -0 -0 -0 -0 -0 -0 -0 -0 -0 -0 -0 -0 -0 -0 -0 -0 -0 -0 -0 -0 -0 -0 -0 -0 -0 -0 -0 -0
-0 -0 -0 -0 -0 -0 -0 -0 -0 -0 -0 -0 -0 -0 -0 -0 -0 -0 -0 -0 -0 -0 -0 -0 -0 -0 -0 -0 -0 -0 -0 -0 -0 -0 -0 -0 -0 -0 -0 -0 -0 -0 -0
-0 -0 -0 -0 -0 -0 -0 -0 -0 -0 -0 -0 -0 -0 -0 -0 -0 -0 -0 -0 -0 -0 -0 -0 -0 -0 -0 -0 -0 -0 -0 -0 -0 -0 -0 -0 -0 -0 -0 -0 -0 -0 -0
-0 -0 -0 -0 -0 -0 -0 -0 -0 -0 -0 -0 -0 -0 -0 -0 -0 -0 -0 -0 -0 -0 -0 -0 -0 -0 -0 -0 -0 -0 -0 -0 -0 -0 -0 -0 -0 -0 -0 -0 -0 -0 -0
-0 -0 -0 -0 -0 -0 -0 -0 -0 -0 -0 -0 -0 -0 -0 -0 -0 -0 -0 -0 -0 -0 -0 -0 -0 -0 -0 -0 -0 -0 -0 -0 -0 -0 -0 -0 -0 -0 -0 -0 -0 -0 -0
-0 -0 -0 -0 -0 -0 -0 -0 -0 -0 -0 -0 -0 -0 -0 -0 -0 -0 -0 -0 -0 -0 -0 -0 -0 -0 -0 -0 -0 -0 -0 -0 -0 -0 -0 -0 -0 -0 -0 -0 -0 -0 -0
-0 -0 -0 -0 -0 -0 -0 -0 -0 -0 -0 -0 -0 -0 -0 -0 -0 -0 -0 -0 -0 -0 -0 -0 -0 -0 -0 -0 -0 -0 -0 -0 -0 -0 -0 -0 -0 -0 -0 -0 -0 -0 -0
-0 -0 -0 -0 -0 -0 -0 -0 -0 -0 -0 -0 -0 -0 -0 -0 -0 -0 -0 -0 -0 -0 -0 -0 -0 -0 -0 -0 -0 -0 -0 -0 -0 -0 -0 -0 -0 -0 -0 -0 -0 -0 -0
-0 -0 -0 -0 -0 -0 -0 -0 -0 -0 -0 -0 -0 -0 -0 -0 -0 -0 -0 -0 -0 -0 -0 -0 -0 -0 -0 -0 -0 -0 -0 -0 -0 -0 -0 -0 -0 -0 -0 -0 -0 -0 -0
-0 -0 -0 -0 -0 -0 -0 -0 -0 -0 -0 -0 -0 -0 -0 -0 -0 -0 -0 -0 -0 -0 -0 -0 -0 -0 -0 -0 -0 -0 -0 -0 -0 -0 -0 -0 -0 -0 -0 -0 -0 -0 -0
-0 -0 -0 -0 -0 -0 -0 -0 -0 -0 -0 -0 -0 -0 -0 -0 -0 -0 -0 -0 -0 -0 -0 -0 -0 -0 -0 -0 -0 -0 -0 -0 -0 -0 -0 -0 -0 -0 -0 -0 -0 -0 -0
-0 -0 -0 -0 -0 -0 -0 -0 -0 -0 -0 -0 -0 -0 -0 -0 -0 -0 -0 -0 -0 -0 -0 -0 -0 -0 -0 -0 -0 -0 -0 -0 -0 -0 -0 -0 -0 -0 -0 -0 -0 -0 -0
-0 -0 -0 -0 -0 -0 -0 -0 -0 -0 -0 -0 -0 -0 -0 -0 -0 -0 -0 -0 -0 -0 -0 -0 -0 -0 -0 -0 -0 -0 -0 -0 -0 -0 -0 -0 -0 -0 -0 -0 -0 -0 -0
-0 -0 -0 -0 -0 -0 -0 -0 -0 -0 -0 -0 -0 -0 -0 -0 -0 -0 -0 -0 -0 -0 -0 -0 -0 -0 -0 -0 -0 -0 -0 -0 -0 -0 -0 -0 -0 -0 -0 -0 -0 -0 -0
-0 -0 -0 -0 -0 -0 -0 -0 -0 -0 -0 -0 -0 -0 -0 -0 -0 -0 -0 -0 -0 -0 -0 -0 -0 -0 -0 -0 -0 -0 -0 -0 -0 -0 -0 -0 -0 -0 -0 -0 -0 -0 -0
Wind_Speed
20 20 23 25 25 25 27 29 31 31 28 27 24 24 22 20 20 20 23 24 25 24 25 25 26 26 29 30 35 36 34 34 41 41 36 36 39 40 40 40 41 42 41
14 16 17 19 20 21 23 25 25 27 25 24 20 19 18 19 20 21 21 22 23 24 26 26 29 28 31 31 32 34 36 37 40 46 42 42 42 43 46 48 47 44 43
13 14 17 17 18 19 20 21 23 21 23 22 19 18 18 18 20 20 20 20 22 21 23 26 29 31 32 34 37 36 36 37 39 44 50 45 46 47 51 49 48 48 45
12 14 15 16 16 17 18 20 20 21 20 20 19 19 19 20 19 20 20 21 22 24 26 28 30 32 32 33 34 36 38 40 41 45 48 50 49 49 48 52 56 48 49
12 14 14 16 16 17 17 18 20 21 21 21 20 20 21 21 21 21 21 23 25 26 26 27 29 31 32 34 35 37 39 42 45 47 51 51 52 53 54 52 55 56 55
14 14 16 17 18 19 18 20 20 21 21 22 22 23 23 24 23 23 22 23 24 25 27 29 29 31 34 37 39 40 41 45 46 47 49 54 55 54 54 55 59 62 68
15 16 16 18 19 20 20 20 22 22 22 24 24 26 27 27 26 25 25 25 26 28 30 32 33 35 38 41 42 41 40 40 42 46 51 52 57 56 60 62 61 62 66
19 20 19 20 21 22 22 22 23 23 25 24 26 27 28 29 29 27 27 28 29 30 32 34 35 38 40 43 43 44 44 44 45 48 52 55 56 59 59 61 64 66 65
22 22 22 22 22 23 23 24 25 26 26 26 26 27 28 30 32 31 30 30 32 34 34 36 38 41 45 47 46 48 48 49 48 51 53 55 57 58 58 61 62 65 69
24 24 24 25 25 25 25 25 26 25 26 26 27 29 31 31 35 35 34 34 35 36 37 40 41 44 46 48 48 50 53 54 57 57 56 55 55 55 56 54 59 67 70
26 26 26 26 26 26 25 26 26 27 27 29 29 31 32 34 35 37 37 37 38 38 40 43 43 47 48 48 49 49 53 56 57 57 58 58 58 58 58 58 59 60 66
24 26 26 27 28 28 29 29 29 29 30 30 31 32 33 35 37 39 40 41 41 41 43 44 45 48 50 50 50 53 54 55 55 58 60 61 63 63 63 62 61 59 57
30 30 30 29 29 30 30 30 31 31 32 33 34 35 36 37 38 41 42 43 43 43 43 47 48 49 50 49 52 54 54 55 58 61 64 64 63 63 63 63 61 60 59
29 29 30 30 30 31 31 32 33 34 34 35 37 37 38 39 41 42 43 44 44 44 46 48 49 49 50 52 52 53 54 56 59 62 65 63 62 63 66 62 65 63 62
30 30 30 31 31 32 32 33 33 35 35 35 37 38 40 41 44 45 46 47 47 48 50 51 53 54 54 55 55 55 56 57 60 61 62 64 64 64 64 60 59 59 59
30 31 31 32 32 33 34 34 35 34 36 37 37 39 40 41 45 46 48 49 49 50 53 55 56 56 58 59 60 60 59 60 61 61 61 61 62 61 61 57 54 53 54
32 32 32 33 34 35 36 36 38 38 36 39 39 40 43 43 45 46 49 51 50 52 55 57 58 59 59 58 58 59 61 60 58 57 56 56 56 56 56 54 52 49 51
32 32 33 33 34 35 36 37 37 39 41 42 41 40 44 45 47 49 52 53 56 55 56 58 59 58 58 57 57 58 58 56 55 54 53 52 53 53 52 50 48 48 47
31 31 32 33 34 35 36 36 36 38 40 42 44 43 44 46 48 51 52 55 58 59 57 56 55 54 54 53 53 53 53 53 51 50 49 49 48 48 47 45 44 43 41
31 31 32 33 34 36 37 38 40 42 44 46 48 50 51 52 56 58 56 57 57 56 55 55 53 51 51 51 51 50 50 48 47 46 45 43 43 42 42 41 39 39 38
29 30 31 33 36 38 40 42 44 46 47 48 48 48 51 53 56 57 58 57 56 55 54 52 50 49 48 47 46 45 44 42 41 41 40 39 39 38 37 36 36 37 38
28 31 34 37 39 41 43 43 46 47 48 49 51 51 53 54 56 57 56 53 51 49 48 48 47 45 44 43 41 40 39 38 38 38 37 36 34 34 35 36 38 38 26
31 34 36 38 39 41 43 45 47 49 50 50 51 54 55 56 55 54 52 49 48 48 48 48 45 43 40 38 36 34 33 33 32 31 31 31 32 33 34 36 22 18 17
31 33 35 38 41 43 45 46 47 48 49 50 52 54 54 54 52 49 48 47 48 47 46 45 41 39 37 35 33 30 27 27 26 23 25 24 12 10 11 14 14 16 16
30 34 36 39 41 43 44 46 47 49 49 50 52 52 52 51 48 46 47 48 47 46 44 41 37 34 33 31 28 26 23 16 13 21 14 2 5 8 10 12 14 17 17
31 34 36 38 40 42 43 45 47 48 49 49 50 50 49 47 46 46 47 46 45 43 40 36 33 31 29 26 22 16 12 18 23 17 11 7 6 10 14 13 13 15 16
Wind_Direction
279 282 277 278 279 286 289 292 294 292 291 296 294 291 295 297 299 298 295 293 294 295 299 299 301 303 305 302 306 305 301 302 300 303 305 307 307 306 307 305 302 301 300
299 299 301 298 296 298 299 302 305 302 307 313 307 303 305 307 307 305 302 302 303 299 303 301 301 306 307 306 308 307 304 304 303 302 305 307 307 307 305 303 303 303 302
313 317 318 319 312 313 314 316 316 314 318 317 320 312 316 312 312 313 310 312 310 313 312 311 311 311 312 310 307 307 307 307 306 304 304 307 306 307 306 307 306 305 304
338 336 338 337 335 332 330 330 332 332 336 334 337 337 333 323 323 317 314 315 313 314 313 317 315 314 315 313 310 310 310 309 309 307 306 307 307 309 310 308 306 308 306
359 358 356 358 356 353 351 351 346 348 347 348 342 348 345 339 335 327 327 325 319 318 319 321 320 322 322 320 318 316 314 311 310 309 308 310 310 311 310 311 308 308 306
6 4 5 2 360 358 358 359 0 1 3 4 7 6 2 354 352 348 343 339 337 334 330 330 331 330 326 323 321 320 319 314 314 313 313 311 311 312 312 311 309 307 306
13 12 12 13 13 13 12 13 13 14 13 13 13 14 12 8 2 357 352 347 342 338 335 332 330 329 328 325 324 325 324 324 322 319 315 314 312 313 311 309 307 306 304
27 24 20 20 22 21 22 21 19 16 15 14 14 16 15 3 357 352 350 347 344 341 340 337 336 336 335 332 328 326 326 324 323 320 318 316 315 315 313 311 309 307 305
29 26 22 22 24 22 18 18 20 23 19 15 10 6 360 357 355 353 351 351 343 341 344 343 340 336 333 331 329 326 325 323 324 322 320 319 318 317 316 314 311 311 308
28 27 26 24 24 23 19 17 18 15 11 5 1 0 1 356 357 357 354 350 345 344 342 339 338 336 334 333 331 328 324 324 323 322 322 321 321 320 319 318 315 310 308
31 30 27 22 21 17 14 10 9 5 5 2 2 6 3 358 354 352 351 347 344 341 340 337 336 335 334 333 333 330 327 325 324 323 322 321 321 321 319 318 317 313 309
24 24 20 19 21 19 19 17 14 11 8 6 2 359 356 355 353 351 349 347 344 341 338 337 335 334 334 333 333 331 330 328 327 325 324 323 322 321 320 319 317 315 312
33 29 26 23 20 17 14 11 8 7 4 360 357 354 352 352 350 348 347 345 344 343 341 338 336 336 335 335 334 333 332 330 328 326 323 322 322 322 321 320 320 318 316
28 24 21 19 17 14 13 10 7 3 1 359 355 352 351 350 348 347 346 345 344 343 341 339 337 336 335 334 334 334 334 332 329 325 323 323 323 323 321 322 319 318 316
28 24 21 20 16 14 12 9 7 5 2 359 357 354 350 348 347 346 344 342 341 339 337 336 335 334 333 333 333 333 332 332 329 328 326 325 324 324 323 324 322 321 320
27 23 20 18 16 14 11 9 8 6 4 2 360 357 353 350 347 345 343 342 340 338 337 335 334 333 332 332 331 331 333 332 331 330 329 329 328 328 327 328 327 326 325
29 26 22 20 18 15 12 9 3 3 4 1 358 356 353 350 348 346 344 342 341 340 338 336 335 334 333 333 333 333 333 334 333 333 333 333 333 333 332 332 331 331 330
32 29 26 23 20 16 13 10 7 3 360 358 359 356 353 350 348 346 344 342 340 341 339 337 335 335 334 334 334 334 334 335 336 336 336 337 338 338 337 337 338 336 336
35 31 29 24 20 16 13 9 7 3 359 355 353 353 352 349 347 346 345 343 339 338 338 337 337 336 335 335 336 336 336 337 337 338 339 341 342 343 343 344 343 344 344
29 26 24 20 15 12 8 5 1 358 355 353 351 348 347 345 343 342 343 341 340 339 338 337 337 337 337 336 337 338 338 340 341 342 343 344 346 348 348 349 351 351 352
25 22 19 15 9 6 3 359 357 354 352 351 349 349 347 345 342 341 341 341 340 339 339 339 338 338 339 339 339 340 341 342 344 346 347 348 350 351 354 356 356 355 351
19 14 10 6 3 0 358 356 353 351 350 349 347 347 346 344 342 341 341 342 343 343 343 342 340 340 340 340 341 342 344 345 348 350 351 354 357 358 360 358 354 340 313
9 6 3 1 360 358 356 354 351 350 348 347 347 345 345 344 343 343 344 344 345 344 344 343 342 341 342 343 344 346 348 350 353 357 358 1 3 3 1 346 316 314 314
5 3 1 359 357 355 353 352 350 349 348 347 346 346 345 345 344 345 346 346 345 345 345 345 345 345 346 347 349 352 356 1 5 9 14 23 39 296 304 310 317 320 318
1 359 358 356 355 353 352 351 350 349 348 348 347 347 347 347 347 348 348 347 347 347 348 349 351 352 352 353 356 1 9 15 18 30 58 226 282 298 308 312 315 323 325
357 356 355 354 353 353 352 350 349 349 349 349 349 349 349 350 350 349 349 349 350 350 351 354 356 357 359 4 11 21 286 295 34 305 285 277 294 309 315 316 318 325 330